[[{"header":{"parameterUnit":"m.s-1","parameterCategory":1,"la1":30.2991,"la2":30.254,"lo1":-89.0895,"lo2":-89.0444,"dy":0.0017,"dx":0.0017,"nx":28,"ny":28,"refTime":"2025-07-03T09:00:00:Z","depth":0,"parameterNumber":2,"parameterNumberName":"U-component_of_WINDS"},"data":[0,0,0,0,0,0,0,0,0,0,0,0,0,0,0,0,0,0,0,0,0,0,0,0,0,0,0,0,0,0,0,0,0,0,0,0,0,0,0,0,0,0,0,0,0,0,0,0,0,0,0,0,0,0,0,0,0,0,1.3658,1.366,0,1.3829,1.3831,1.3833,1.3828,1.3825,1.3823,1.3821,1.3998,1.4005,1.4012,0,0,0,0,0,0,0,0,0,0,0,0,0,1.3329,1.3335,1.3658,1.366,1.3662,1.3829,1.3831,1.3834,1.3828,1.3825,1.3823,1.382,1.3996,1.4004,1.4013,0,0,0,0,0,0,0,0,0,0,0,0,0,1.3484,1.3337,1.3657,1.3679,1.3683,1.3828,1.3831,1.3834,1.3829,1.3825,1.3822,1.3818,1.3993,1.4003,1.4014,1.4149,0,0,1.4046,1.405,0,0,0,0,0,0,0,0,1.3475,1.3496,1.3674,1.3678,1.3682,1.3803,1.3781,1.394,1.383,1.3774,1.3821,1.3817,1.3937,1.3951,1.3991,1.4157,1.4165,1.4046,1.4053,1.4057,1.406,0,0,0,0,0,0,0,1.3464,1.3488,1.3726,1.3677,1.3682,1.3682,1.37,1.3811,1.3873,1.3778,1.3778,1.3798,1.3938,1.3981,1.3996,1.4168,1.4046,1.4055,1.4062,1.4066,1.4458,1.4462,0,0,0,0,0,0,1.3448,1.3479,1.372,1.3731,1.3568,1.3691,1.3711,1.3768,1.3872,1.3884,1.3801,1.3798,1.3965,1.3983,1.4002,1.417,1.4057,1.4067,1.4073,1.4454,1.4459,1.4464,0,0,0,0,0,0,1.3441,1.347,1.3713,1.3605,1.3636,1.37,1.3765,1.3774,1.3817,1.3889,1.39,1.3834,1.3963,1.3987,1.4113,1.4176,1.4072,1.4081,1.4449,1.4456,1.4461,1.4506,0,0,0,0,0,0,1.3432,1.3467,1.3518,1.3606,1.3642,1.3821,1.3768,1.3779,1.3834,1.3831,1.3923,1.3934,1.3962,1.4098,1.4124,1.4189,1.4089,1.4444,1.4452,1.4459,1.4499,1.4513,1.4525,0,0,0,0,0,1.342,1.3523,1.3521,1.355,1.3707,1.3824,1.3845,1.3874,1.3839,1.3892,1.394,1.3932,1.4165,1.4111,1.414,1.4209,1.444,1.445,1.4459,1.4494,1.451,1.4525,0,0,0,0,0,0,1.344,1.3535,1.3533,1.3668,1.3738,1.3823,1.389,1.389,1.3972,1.3966,1.4,1.402,1.4148,1.4191,1.4129,1.4348,1.4298,1.4314,1.4315,1.4331,1.4344,1.4332,1.4098,0,0,0,0,0,1.346,1.3547,1.3625,1.3737,1.3772,1.3825,1.3877,1.3894,1.3969,1.3999,1.4055,1.4128,1.4219,1.4277,1.4364,1.4505,1.4527,1.4567,1.458,1.459,1.4604,1.4686,1.4706,1.4495,1.4494,1.4494,0,0,1.3502,1.3565,1.3618,1.3742,1.3799,1.389,1.385,1.3947,1.4015,1.4013,1.4137,1.4181,1.4265,1.4401,1.4463,1.4441,1.4667,1.4602,1.461,1.4618,1.4698,1.4718,1.4735,1.4501,1.45,1.4499,0,0,1.3626,1.3681,1.3782,1.384,1.3926,1.3962,1.3986,1.4072,1.4102,1.4226,1.4228,1.431,1.4464,1.4525,1.4576,1.4728,1.4725,1.4755,1.4822,1.4902,1.4919,1.4934,1.4991,1.5011,1.4768,1.4768,1.4768,0,1.3668,1.3804,1.3833,1.3932,1.3988,1.3991,1.4095,1.415,1.4261,1.43,1.4273,1.4469,1.4526,1.4678,1.4715,1.4755,1.4786,1.4745,1.4914,1.4929,1.4944,1.4999,1.502,1.4772,1.4771,1.4771,1.4771,0,1.3853,1.3947,1.4018,1.4126,1.419,1.4291,1.4337,1.4399,1.4412,1.445,1.4579,1.4648,1.475,1.4787,1.48,1.4943,1.4926,1.4906,1.4858,1.4967,1.5019,1.504,1.4776,1.4775,1.4774,1.4773,0,0,1.3992,1.4117,1.4143,1.4194,1.4291,1.4366,1.4468,1.4569,1.4623,1.4699,1.4788,1.492,1.4903,1.4961,1.4981,1.5051,1.5171,1.5023,1.5025,1.505,1.5337,1.5352,1.5376,1.5169,1.5173,1.5176,1.533,0,1.4128,1.4309,1.434,1.4499,1.4589,1.4595,1.4685,1.4756,1.4795,1.4879,1.4923,1.5017,1.4986,1.5022,1.5091,1.5141,1.5229,1.513,1.5254,1.5258,1.5234,1.5403,1.5419,1.556,1.5351,1.5354,1.5357,0,1.431,1.4393,1.4561,1.4651,1.469,1.4769,1.4866,1.4945,1.5027,1.5051,1.5118,1.5131,1.524,1.5186,1.5338,1.5271,1.5324,1.5356,1.5363,1.5376,1.5315,1.5423,1.5606,1.5628,1.5388,1.5386,1.5384,0,1.4398,1.4552,1.4674,1.4717,1.4823,1.488,1.4927,1.5005,1.5065,1.515,1.519,1.5286,1.5339,1.5415,1.5454,1.5411,1.5606,1.5554,1.5631,1.563,1.5672,1.5669,1.5868,1.5703,1.5703,1.5702,1.5702,0,1.4547,1.465,1.4715,1.479,1.4908,1.4944,1.5059,1.5105,1.5176,1.5261,1.5272,1.5353,1.5399,1.5487,1.5519,1.5642,1.5666,1.569,1.5698,1.569,1.5688,1.5726,1.5718,1.5708,1.5707,1.5706,1.5705,0,1.4665,1.4712,1.4846,1.4937,1.4962,1.5045,1.5124,1.5198,1.5239,1.5348,1.5375,1.544,1.5544,1.5591,1.572,1.5741,1.5883,1.5882,1.5855,1.5858,1.5934,1.5927,1.6166,1.62,1.6011,1.6012,1.6014,0,1.4758,1.4838,1.4938,1.4997,1.5046,1.5139,1.5201,1.5241,1.5305,1.5407,1.547,1.5575,1.5661,1.5828,1.5888,1.5987,1.5991,1.6068,1.6006,1.5997,1.5995,1.599,1.6,1.6079,1.6081,1.6082,1.6084,0,1.4918,1.4939,1.5027,1.5126,1.5199,1.5279,1.5356,1.5404,1.5456,1.5528,1.5636,1.5703,1.5836,1.5941,1.6045,1.6095,1.61,1.6103,1.6127,1.612,1.6102,1.6116,1.5888,1.6097,1.6096,1.6095,1.6094,1.6094,1.5028,1.5101,1.5184,1.5284,1.5347,1.542,1.5496,1.5547,1.5637,1.5749,1.5767,1.5883,1.5967,1.6107,1.6162,1.6254,1.6235,1.6269,1.6278,1.6286,1.6292,1.6087,1.6273,1.6272,1.6272,1.6272,1.6271,0,1.5191,1.5246,1.5337,1.5446,1.5526,1.5523,1.561,1.5677,1.5778,1.5856,1.5941,1.6067,1.617,1.6239,1.6344,1.6405,1.641,1.6432,1.6428,1.6441,1.6301,1.6271,1.6426,1.6426,1.6426,1.6426,1.6426,1.6426,1.5285,1.541,1.5441,1.5598,1.5652,1.5766,1.5816,1.5885,1.5948,1.6088,1.6174,1.6218,1.6294,1.6405,1.6501,1.6518,1.6558,1.658,1.6598,1.6466,1.645,1.6434,1.6407,1.6588,1.6588,1.673,1.6732,1.6733]},{"header":{"parameterUnit":"m.s-1","parameterCategory":1,"la1":30.2991,"la2":30.254,"lo1":-89.0895,"lo2":-89.0444,"dy":0.0017,"dx":0.0017,"nx":28,"ny":28,"refTime":"2025-07-03T09:00:00:Z","depth":0,"parameterNumber":3,"parameterNumberName":"V-component_of_WINDS"},"data":[0,0,0,0,0,0,0,0,0,0,0,0,0,0,0,0,0,0,0,0,0,0,0,0,0,0,0,0,0,0,0,0,0,0,0,0,0,0,0,0,0,0,0,0,0,0,0,0,0,0,0,0,0,0,0,0,0,0,-0.6078,-0.6077,0,-0.602,-0.6019,-0.6018,-0.6076,-0.6078,-0.608,-0.6082,-0.6022,-0.6018,-0.6014,0,0,0,0,0,0,0,0,0,0,0,0,0,-0.6238,-0.6235,-0.6078,-0.6077,-0.6076,-0.602,-0.6019,-0.6018,-0.6075,-0.6078,-0.6081,-0.6083,-0.6023,-0.6019,-0.6014,0,0,0,0,0,0,0,0,0,0,0,0,0,-0.6173,-0.6234,-0.6078,-0.6098,-0.6099,-0.602,-0.6019,-0.6018,-0.6075,-0.6078,-0.6082,-0.6085,-0.6024,-0.6019,-0.6014,-0.5911,0,0,-0.5996,-0.5994,0,0,0,0,0,0,0,0,-0.6177,-0.6167,-0.6096,-0.6097,-0.6098,-0.6059,-0.6053,-0.5982,-0.6074,-0.6084,-0.6083,-0.6086,-0.6031,-0.6025,-0.6007,-0.5908,-0.5906,-0.5996,-0.5993,-0.599,-0.5989,0,0,0,0,0,0,0,-0.6181,-0.617,-0.6055,-0.6095,-0.6096,-0.611,-0.6104,-0.604,-0.6039,-0.6083,-0.6087,-0.608,-0.6032,-0.6012,-0.6006,-0.5905,-0.5996,-0.5991,-0.5988,-0.5985,-0.5719,-0.5715,0,0,0,0,0,0,-0.6183,-0.6173,-0.6057,-0.6053,-0.6146,-0.6104,-0.6098,-0.6068,-0.604,-0.6039,-0.6077,-0.6083,-0.602,-0.6012,-0.6004,-0.5881,-0.599,-0.5985,-0.5982,-0.5723,-0.5718,-0.5714,0,0,0,0,0,0,-0.6187,-0.6172,-0.6059,-0.6114,-0.6101,-0.6098,-0.6063,-0.6065,-0.6045,-0.6035,-0.6035,-0.6056,-0.6022,-0.6012,-0.5934,-0.588,-0.5982,-0.5977,-0.5727,-0.5721,-0.5716,-0.5636,0,0,0,0,0,0,-0.6191,-0.6173,-0.6134,-0.6113,-0.6098,-0.5989,-0.606,-0.6061,-0.6035,-0.6042,-0.6016,-0.6015,-0.6024,-0.5942,-0.5928,-0.5874,-0.5973,-0.5732,-0.5725,-0.5718,-0.5643,-0.5628,-0.5615,0,0,0,0,0,-0.6196,-0.6114,-0.6132,-0.6117,-0.6049,-0.5986,-0.5978,-0.599,-0.603,-0.5991,-0.5985,-0.6016,-0.5889,-0.5933,-0.5918,-0.5862,-0.5735,-0.5727,-0.5718,-0.5649,-0.5631,-0.5616,0,0,0,0,0,0,-0.6128,-0.6111,-0.6131,-0.6039,-0.6014,-0.5996,-0.5946,-0.597,-0.5933,-0.5941,-0.5958,-0.5952,-0.5869,-0.5858,-0.5908,-0.5762,-0.5819,-0.5807,-0.5771,-0.5754,-0.574,-0.5743,-0.5968,0,0,0,0,0,-0.6102,-0.6053,-0.6041,-0.5961,-0.5947,-0.5949,-0.5922,-0.5934,-0.5909,-0.5898,-0.5887,-0.586,-0.5815,-0.5784,-0.5741,-0.5643,-0.5638,-0.5597,-0.5583,-0.5572,-0.556,-0.5507,-0.5489,-0.5687,-0.5687,-0.5687,0,0,-0.6048,-0.6033,-0.6001,-0.5947,-0.5928,-0.5877,-0.5939,-0.5882,-0.5844,-0.5889,-0.5814,-0.5805,-0.5777,-0.5688,-0.5649,-0.5677,-0.5505,-0.5561,-0.5552,-0.5547,-0.5497,-0.5478,-0.5461,-0.5681,-0.5682,-0.5683,0,0,-0.5923,-0.5907,-0.5838,-0.5819,-0.5791,-0.5793,-0.5776,-0.5755,-0.5751,-0.5677,-0.571,-0.5665,-0.5586,-0.5564,-0.5543,-0.5411,-0.5437,-0.5397,-0.5323,-0.5271,-0.5255,-0.5242,-0.5193,-0.5176,-0.5387,-0.5386,-0.5386,0,-0.5858,-0.5782,-0.5799,-0.574,-0.5715,-0.5755,-0.5685,-0.5666,-0.5625,-0.5607,-0.5639,-0.5541,-0.5525,-0.5431,-0.5399,-0.5381,-0.5363,-0.5399,-0.5256,-0.5243,-0.523,-0.5184,-0.5166,-0.5381,-0.5382,-0.5383,-0.5383,0,-0.5704,-0.5651,-0.5599,-0.5559,-0.5529,-0.5464,-0.5471,-0.5439,-0.5454,-0.5453,-0.5377,-0.5359,-0.5314,-0.5293,-0.5307,-0.5201,-0.5219,-0.5254,-0.5311,-0.5206,-0.5163,-0.5146,-0.5374,-0.5376,-0.5378,-0.5379,0,0,-0.5531,-0.5503,-0.5483,-0.5466,-0.5439,-0.5398,-0.5336,-0.5292,-0.5263,-0.5234,-0.5182,-0.5115,-0.5147,-0.5123,-0.5135,-0.509,-0.4985,-0.513,-0.5129,-0.5102,-0.4866,-0.4839,-0.4818,-0.5004,-0.5001,-0.4998,-0.4868,0,-0.5404,-0.5295,-0.531,-0.5206,-0.5156,-0.5195,-0.5141,-0.5118,-0.5116,-0.5074,-0.5072,-0.5023,-0.507,-0.5055,-0.5012,-0.5007,-0.4938,-0.5017,-0.4954,-0.4952,-0.4958,-0.4796,-0.4767,-0.4645,-0.4852,-0.4849,-0.4847,0,-0.524,-0.5206,-0.5097,-0.5078,-0.5058,-0.5008,-0.4969,-0.4929,-0.4905,-0.4906,-0.488,-0.4901,-0.4839,-0.4899,-0.4813,-0.4867,-0.4842,-0.4836,-0.4832,-0.4825,-0.4891,-0.4783,-0.4607,-0.4587,-0.4821,-0.4823,-0.4825,0,-0.5122,-0.5049,-0.4975,-0.4959,-0.4935,-0.49,-0.4888,-0.4867,-0.484,-0.4807,-0.4789,-0.4749,-0.4726,-0.4694,-0.4704,-0.4747,-0.4615,-0.4677,-0.4614,-0.4613,-0.4582,-0.4583,-0.4397,-0.457,-0.457,-0.4571,-0.4571,0,-0.4977,-0.4908,-0.4922,-0.4875,-0.48,-0.4818,-0.4742,-0.4736,-0.4717,-0.467,-0.4702,-0.4657,-0.4674,-0.463,-0.4638,-0.4565,-0.4555,-0.4554,-0.4556,-0.4549,-0.4549,-0.4532,-0.454,-0.4566,-0.4567,-0.4568,-0.4569,0,-0.4832,-0.4838,-0.4759,-0.4744,-0.4738,-0.4683,-0.467,-0.4627,-0.4628,-0.4568,-0.4555,-0.4557,-0.4507,-0.4514,-0.4459,-0.4464,-0.4373,-0.4387,-0.4381,-0.4383,-0.4319,-0.4324,-0.4113,-0.4086,-0.4279,-0.4277,-0.4275,0,-0.4737,-0.4685,-0.4665,-0.4636,-0.4622,-0.4575,-0.4548,-0.4564,-0.4535,-0.4504,-0.4464,-0.4417,-0.4381,-0.43,-0.4296,-0.4254,-0.4265,-0.4195,-0.4259,-0.4254,-0.4262,-0.4264,-0.4258,-0.4181,-0.4179,-0.4177,-0.4175,0,-0.4568,-0.4574,-0.4534,-0.4494,-0.4461,-0.4431,-0.4404,-0.4378,-0.4393,-0.4358,-0.4308,-0.4279,-0.4224,-0.4176,-0.4138,-0.4126,-0.4152,-0.4156,-0.4139,-0.413,-0.4128,-0.4126,-0.4343,-0.416,-0.4161,-0.4162,-0.4163,-0.4164,-0.4444,-0.4399,-0.4378,-0.4332,-0.4314,-0.4288,-0.4247,-0.4243,-0.4202,-0.4158,-0.4171,-0.4113,-0.4092,-0.4042,-0.4027,-0.3982,-0.4008,-0.3984,-0.3977,-0.397,-0.3962,-0.4137,-0.3975,-0.3976,-0.3976,-0.3977,-0.3977,0,-0.4275,-0.4264,-0.4221,-0.4183,-0.4147,-0.4177,-0.4149,-0.4116,-0.4066,-0.4043,-0.4007,-0.395,-0.3905,-0.3898,-0.3856,-0.3821,-0.3832,-0.3809,-0.3811,-0.3807,-0.3942,-0.396,-0.3801,-0.3801,-0.3801,-0.3801,-0.3801,-0.3801,-0.4182,-0.4108,-0.4112,-0.403,-0.402,-0.3964,-0.3945,-0.3922,-0.3904,-0.3839,-0.3802,-0.3798,-0.3782,-0.3739,-0.3699,-0.3698,-0.368,-0.3652,-0.3656,-0.3781,-0.3798,-0.3815,-0.3832,-0.3649,-0.3648,-0.3525,-0.3524,-0.3523]}]]